• In Uzbekistan
  • List of Countries
  • For 7 days
  • Water Temperature
  • Satellite Maps
  • Weather Map
  • Weather Widgets
  • user-avatar
    Login

    Hourly Weather Hrazdan

    Today, 19 April, Thursday

    Time Temperature Precipitation Wind Pressure Humidity
    00:00 +6°C° 0 mm 1 mps 614 mmHg 66%
    01:00 +6°C° 0 mm 1 mps 613 mmHg 66%
    02:00 +6°C° 0 mm 1 mps 613 mmHg 65%
    03:00 +5°C° 0 mm 1 mps 613 mmHg 66%
    04:00 +6°C° 0 mm 1 mps 612 mmHg 64%
    05:00 +6°C° 0 mm 1 mps 612 mmHg 62%
    06:00 +6°C° 0 mm 1 mps 612 mmHg 60%
    07:00 +7°C° 0 mm 2 mps 612 mmHg 54%
    08:00 +9°C° 0 mm 2 mps 613 mmHg 48%
    09:00 +12°C° 0 mm 2 mps 613 mmHg 42%
    10:00 +12°C° 0 mm 3 mps 613 mmHg 40%
    11:00 +13°C° 0 mm 3 mps 613 mmHg 38%
    12:00 +14°C° 0 mm 4 mps 613 mmHg 36%
    13:00 +14°C° 0.1 mm 4 mps 612 mmHg 38%
    14:00 +14°C° 0.1 mm 4 mps 612 mmHg 41%
    15:00 +14°C° 0.1 mm 4 mps 611 mmHg 43%
    16:00 +12°C° 0.6 mm 3 mps 610 mmHg 52%
    17:00 +11°C° 0.6 mm 3 mps 610 mmHg 61%
    18:00 +9°C° 0.6 mm 2 mps 609 mmHg 70%
    19:00 +8°C° 0.5 mm 2 mps 609 mmHg 74%
    20:00 +9°C° 0.5 mm 1 mps 609 mmHg 78%
    21:00 +8°C° 0.5 mm 1 mps 609 mmHg 83%
    22:00 +7°C° 0.1 mm 1 mps 608 mmHg 83%
    23:00 +7°C° 0.1 mm 1 mps 608 mmHg 84%

    Tomorrow, 20 April, Friday

    Time Temperature Precipitation Wind Pressure Humidity
    00:00 +6°C° 0.1 mm 1 mps 608 mmHg 84%
    01:00 +6°C° 0 mm 1 mps 608 mmHg 83%
    02:00 +6°C° 0 mm 1 mps 607 mmHg 83%
    03:00 +5°C° 0 mm 1 mps 607 mmHg 82%
    04:00 +5°C° 0 mm 1 mps 607 mmHg 82%
    05:00 +5°C° 0 mm 1 mps 607 mmHg 81%
    06:00 +5°C° 0 mm 1 mps 606 mmHg 81%
    07:00 +6°C° 0 mm 2 mps 607 mmHg 74%
    08:00 +8°C° 0 mm 2 mps 607 mmHg 67%
    09:00 +9°C° 0 mm 3 mps 607 mmHg 60%
    10:00 +10°C° 0.2 mm 3 mps 607 mmHg 57%
    11:00 +11°C° 0.2 mm 4 mps 607 mmHg 53%
    12:00 +12°C° 0.2 mm 5 mps 607 mmHg 50%
    13:00 +12°C° 0.7 mm 4 mps 606 mmHg 53%
    14:00 +11°C° 0.7 mm 4 mps 606 mmHg 56%
    15:00 +11°C° 0.7 mm 4 mps 605 mmHg 58%
    16:00 +9°C° 1.8 mm 3 mps 605 mmHg 65%
    17:00 +8°C° 1.8 mm 2 mps 605 mmHg 73%
    18:00 +7°C° 1.8 mm 2 mps 604 mmHg 80%
    19:00 +6°C° 0.7 mm 2 mps 604 mmHg 82%
    20:00 +6°C° 0.7 mm 2 mps 604 mmHg 83%
    21:00 +5°C° 0.7 mm 2 mps 605 mmHg 85%
    22:00 +5°C° 1 mm 2 mps 604 mmHg 86%
    23:00 +5°C° 1 mm 2 mps 604 mmHg 87%

    Day after tomorrow, 21 April, Saturday

    Time Temperature Precipitation Wind Pressure Humidity
    00:00 +4°C° 1 mm 2 mps 604 mmHg 88%
    01:00 +4°C° 1.5 mm 2 mps 604 mmHg 88%
    02:00 +3°C° 1.5 mm 2 mps 604 mmHg 88%
    03:00 +3°C° 1.5 mm 2 mps 604 mmHg 89%
    04:00 +3°C° 1.3 mm 2 mps 604 mmHg 89%
    05:00 +2°C° 1.3 mm 2 mps 604 mmHg 90%
    06:00 +2°C° 1.3 mm 2 mps 605 mmHg 90%
    07:00 +2°C° 0.6 mm 2 mps 605 mmHg 89%
    08:00 +3°C° 0.6 mm 2 mps 605 mmHg 88%
    09:00 +4°C° 0.6 mm 1 mps 606 mmHg 86%
    10:00 +5°C° 0.3 mm 1 mps 606 mmHg 84%
    11:00 +5°C° 0.3 mm 1 mps 606 mmHg 83%
    12:00 +6°C° 0.3 mm 1 mps 606 mmHg 81%
    13:00 +5°C° 0.2 mm 2 mps 606 mmHg 80%
    14:00 +5°C° 0.2 mm 2 mps 606 mmHg 78%
    15:00 +6°C° 0.2 mm 2 mps 606 mmHg 77%
    16:00 +5°C° 0.1 mm 2 mps 606 mmHg 78%
    17:00 +5°C° 0.1 mm 2 mps 606 mmHg 79%
    18:00 +5°C° 0.1 mm 2 mps 606 mmHg 81%
    19:00 +4°C° 0.3 mm 2 mps 607 mmHg 82%
    20:00 +4°C° 0.3 mm 2 mps 607 mmHg 83%
    21:00 +3°C° 0.3 mm 2 mps 608 mmHg 85%
    22:00 +3°C° 0.4 mm 2 mps 607 mmHg 86%
    23:00 +3°C° 0.4 mm 2 mps 607 mmHg 87%

    22 April, Sunday

    Time Temperature Precipitation Wind Pressure Humidity
    00:00 +2°C° 0.4 mm 2 mps 607 mmHg 88%
    01:00 +2°C° 0.6 mm 2 mps 607 mmHg 88%
    02:00 +2°C° 0.6 mm 2 mps 607 mmHg 89%
    03:00 +2°C° 0.6 mm 2 mps 607 mmHg 90%
    04:00 +1°C° 0.5 mm 2 mps 607 mmHg 90%
    05:00 +1°C° 0.5 mm 2 mps 607 mmHg 90%
    06:00 +1°C° 0.5 mm 2 mps 607 mmHg 91%
    07:00 +2°C° 0.2 mm 2 mps 607 mmHg 89%
    08:00 +2°C° 0.2 mm 2 mps 608 mmHg 88%
    09:00 +3°C° 0.2 mm 2 mps 608 mmHg 87%
    10:00 +3°C° 0.2 mm 2 mps 608 mmHg 86%
    11:00 +4°C° 0.2 mm 2 mps 607 mmHg 84%
    12:00 +5°C° 0.2 mm 2 mps 607 mmHg 83%
    13:00 +5°C° 0.2 mm 2 mps 607 mmHg 83%
    14:00 +5°C° 0.2 mm 2 mps 607 mmHg 82%
    15:00 +5°C° 0.2 mm 2 mps 607 mmHg 82%
    16:00 +5°C° 0.2 mm 2 mps 606 mmHg 82%
    17:00 +5°C° 0.2 mm 2 mps 606 mmHg 82%
    18:00 +4°C° 0.2 mm 2 mps 606 mmHg 82%
    19:00 +4°C° 0.1 mm 2 mps 607 mmHg 84%
    20:00 +3°C° 0.1 mm 2 mps 607 mmHg 85%
    21:00 +3°C° 0.1 mm 2 mps 607 mmHg 86%
    22:00 +2°C° 0.1 mm 2 mps 607 mmHg 87%
    23:00 +2°C° 0.1 mm 2 mps 607 mmHg 88%

    23 April, Monday

    Time Temperature Precipitation Wind Pressure Humidity
    00:00 +3°C° 0.1 mm 1 mps 607 mmHg 88%
    01:00 +2°C° 0.1 mm 2 mps 607 mmHg 89%
    02:00 +1°C° 0.1 mm 2 mps 606 mmHg 89%
    03:00 +1°C° 0.1 mm 2 mps 606 mmHg 89%
    04:00 +1°C° 0 mm 2 mps 607 mmHg 88%
    05:00 +1°C° 0 mm 2 mps 607 mmHg 88%
    06:00 +1°C° 0 mm 2 mps 607 mmHg 87%
    07:00 +2°C° 0.1 mm 2 mps 607 mmHg 82%
    08:00 +3°C° 0.1 mm 2 mps 608 mmHg 77%
    09:00 +6°C° 0.1 mm 1 mps 608 mmHg 72%
    10:00 +7°C° 0.1 mm 1 mps 608 mmHg 69%
    11:00 +7°C° 0.1 mm 1 mps 609 mmHg 67%
    12:00 +8°C° 0.1 mm 1 mps 609 mmHg 65%
    13:00 +8°C° 0.1 mm 1 mps 609 mmHg 65%
    14:00 +7°C° 0.1 mm 2 mps 609 mmHg 65%
    15:00 +8°C° 0.1 mm 2 mps 609 mmHg 65%
    16:00 +7°C° 0.1 mm 2 mps 609 mmHg 67%
    17:00 +7°C° 0.1 mm 2 mps 609 mmHg 70%
    18:00 +7°C° 0.1 mm 1 mps 609 mmHg 72%
    19:00 +6°C° 0 mm 1 mps 609 mmHg 75%
    20:00 +5°C° 0 mm 1 mps 610 mmHg 77%
    21:00 +4°C° 0 mm 1 mps 610 mmHg 80%
    22:00 +3°C° 0 mm 1 mps 610 mmHg 81%
    23:00 +3°C° 0 mm 1 mps 610 mmHg 81%

    24 April, Tuesday

    Time Temperature Precipitation Wind Pressure Humidity
    00:00 +2°C° 0 mm 1 mps 610 mmHg 82%
    01:00 +2°C° 0 mm 1 mps 610 mmHg 81%
    02:00 +2°C° 0 mm 1 mps 610 mmHg 79%
    03:00 +2°C° 0 mm 1 mps 610 mmHg 78%
    04:00 +2°C° 0 mm 1 mps 611 mmHg 76%
    05:00 +2°C° 0 mm 1 mps 611 mmHg 74%
    06:00 +2°C° 0 mm 1 mps 611 mmHg 71%
    07:00 +3°C° 0 mm 2 mps 612 mmHg 68%
    08:00 +5°C° 0 mm 2 mps 612 mmHg 64%
    09:00 +7°C° 0 mm 2 mps 613 mmHg 61%
    10:00 +8°C° 0 mm 2 mps 613 mmHg 58%
    11:00 +9°C° 0 mm 2 mps 614 mmHg 54%
    12:00 +10°C° 0 mm 3 mps 614 mmHg 51%
    13:00 +11°C° 0 mm 3 mps 614 mmHg 49%
    14:00 +11°C° 0 mm 3 mps 614 mmHg 47%
    15:00 +12°C° 0 mm 3 mps 614 mmHg 44%
    16:00 +12°C° 0 mm 2 mps 614 mmHg 48%
    17:00 +10°C° 0 mm 2 mps 614 mmHg 51%
    18:00 +9°C° 0 mm 2 mps 613 mmHg 55%
    19:00 +8°C° 0 mm 2 mps 613 mmHg 56%
    20:00 +7°C° 0 mm 2 mps 613 mmHg 57%
    21:00 +6°C° 0 mm 1 mps 613 mmHg 58%
    22:00 +6°C° 0 mm 1 mps 613 mmHg 58%
    23:00 +6°C° 0 mm 1 mps 613 mmHg 59%
    Show more